Location: Beadle
(51.4667°N, 109.0000°W)
Time: 18:50:53
(UTC+00:00)

O/OREOS (USA 219) - Pass Details

Date: 26 June 2022
Orbit: 621 x 646 km, 72.0° (Epoch: 22 May)

Event Time Altitude Azimuth Distance (km) Brightness Sun altitude
Rises 07:00:40 0° 336° (NNW) 2,959 ? -15.1°
Reaches altitude 10° 07:03:22 10° 351° (N) 2,050 ? -15.1°
Maximum altitude 07:07:03 23° 45° (NE) 1,377 ? -15.1°
Drops below altitude 10° 07:10:43 10° 98° (E) 2,047 ? -15.2°
Sets 07:13:25 0° 113° (ESE) 2,955 ? -15.2°
